This is the latest recevied weather packets stored in our database for station/object KQ4UPF. If no packets are shown the sender has not sent any weather packets the latest 10 day(s).
| Time | Temp. | Humidity | Pressure | Rain* | Wind** | Luminosity | Snow |
|---|---|---|---|---|---|---|---|
| 1777404582 | 23.33° C | 77% | 1019.4 hPa | 0 mm | - | 376 W/m² | - |
| 1777404278 | 22.78° C | 74% | 1019.4 hPa | 0 mm | - | 464 W/m² | - |
| 1777403974 | 22.22° C | 77% | 1019.4 hPa | 0 mm | - | 619 W/m² | - |
| 1777403674 | 22.22° C | 80% | 1019.7 hPa | 0 mm | - | 302 W/m² | - |
| 1777403372 | 22.78° C | 75% | 1019.8 hPa | 0 mm | - | 353 W/m² | - |
| 1777403067 | 22.22° C | 79% | 1020 hPa | 0 mm | - | 259 W/m² | - |
| 1777402764 | 22.78° C | 79% | 1020 hPa | 0 mm | - | 274 W/m² | - |
| 1777402460 | 22.78° C | 75% | 1019.3 hPa | 0 mm | - | 456 W/m² | - |
| 1777402158 | 22.78° C | 75% | 1019.4 hPa | 0 mm | - | 493 W/m² | - |
| 1777401853 | 22.22° C | 78% | 1019.4 hPa | 0 mm | - | 614 W/m² | - |
| 1777401552 | 22.22° C | 78% | 1019.3 hPa | 0 mm | - | 669 W/m² | - |
| 1777401248 | 22.78° C | 75% | 1019.4 hPa | 0 mm | - | 477 W/m² | - |
| 1777400944 | 22.78° C | 74% | 1019.8 hPa | 0 mm | - | 605 W/m² | - |
| 1777400640 | 22.78° C | 79% | 1019.6 hPa | 0 mm | - | 441 W/m² | - |
| 1777400338 | 22.78° C | 75% | 1019.3 hPa | 0 mm | - | 431 W/m² | - |
| 1777400033 | 22.78° C | 76% | 1019.4 hPa | 0 mm | - | 526 W/m² | - |
| 1777399731 | 22.78° C | 75% | 1019.4 hPa | 0 mm | - | 741 W/m² | - |
| 1777399427 | 22.22° C | 75% | 1019.4 hPa | 0 mm | - | 664 W/m² | - |
| 1777399125 | 22.78° C | 76% | 1019.4 hPa | 0 mm | - | 373 W/m² | - |
| 1777398822 | 22.22° C | 82% | 1019.8 hPa | 0 mm | - | 467 W/m² | - |
| 1777398519 | 22.22° C | 79% | 1019.7 hPa | 0 mm | - | 743 W/m² | - |
| 1777398215 | 22.22° C | 80% | 1019.9 hPa | 0 mm | - | 918 W/m² | - |
| 1777397912 | 22.78° C | 77% | 1019.9 hPa | 0 mm | - | 589 W/m² | - |
| 1777397608 | 22.78° C | 77% | 1020 hPa | 0 mm | - | 356 W/m² | - |
| 1777397304 | 22.78° C | 76% | 1020.2 hPa | 0 mm | - | 547 W/m² | - |
* Rain latest hour (hover to see other rain measurements)
** Current wind speed in m/s (hover to see current wind gust speed)